• In Germany
  • List of Countries
  • For 7 days
  • Water Temperature
  • Satellite Maps
  • Weather Map
  • Weather Widgets
  • user-avatar
    Login

    Hourly Weather Gjirokaster

    Today, 23 June, Friday

    Time Temperature Precipitation Wind Pressure Humidity
    00:00 +13°C° 0 mm 1 mps 654 mmHg 82%
    01:00 +12°C° 0 mm 1 mps 654 mmHg 84%
    02:00 +12°C° 0 mm 1 mps 654 mmHg 84%
    03:00 +12°C° 0 mm 1 mps 653 mmHg 84%
    04:00 +12°C° 0 mm 1 mps 653 mmHg 84%
    05:00 +14°C° 0 mm 0 mps 654 mmHg 74%
    06:00 +17°C° 0 mm 0 mps 655 mmHg 64%
    07:00 +20°C° 0 mm 0 mps 656 mmHg 55%
    08:00 +23°C° 0 mm 1 mps 656 mmHg 49%
    09:00 +25°C° 0 mm 1 mps 656 mmHg 44%
    10:00 +26°C° 0 mm 2 mps 657 mmHg 39%
    11:00 +26°C° 0.1 mm 2 mps 657 mmHg 38%
    12:00 +27°C° 0.1 mm 3 mps 657 mmHg 37%
    13:00 +27°C° 0.1 mm 3 mps 656 mmHg 36%
    14:00 +27°C° 0.1 mm 3 mps 656 mmHg 37%
    15:00 +26°C° 0.1 mm 3 mps 656 mmHg 39%
    16:00 +25°C° 0.1 mm 3 mps 656 mmHg 40%
    17:00 +22°C° 0 mm 3 mps 655 mmHg 49%
    18:00 +19°C° 0 mm 2 mps 654 mmHg 57%
    19:00 +17°C° 0 mm 2 mps 654 mmHg 65%
    20:00 +16°C° 0 mm 2 mps 653 mmHg 67%
    21:00 +15°C° 0 mm 1 mps 653 mmHg 69%
    22:00 +14°C° 0 mm 1 mps 653 mmHg 71%
    23:00 +13°C° 0 mm 1 mps 653 mmHg 71%

    Tomorrow, 24 June, Saturday

    Time Temperature Precipitation Wind Pressure Humidity
    00:00 +13°C° 0 mm 1 mps 653 mmHg 71%
    01:00 +13°C° 0 mm 1 mps 653 mmHg 70%
    02:00 +12°C° 0 mm 1 mps 653 mmHg 71%
    03:00 +12°C° 0 mm 1 mps 653 mmHg 72%
    04:00 +12°C° 0 mm 1 mps 652 mmHg 73%
    05:00 +15°C° 0 mm 1 mps 653 mmHg 64%
    06:00 +19°C° 0 mm 1 mps 654 mmHg 56%
    07:00 +21°C° 0 mm 1 mps 655 mmHg 48%
    08:00 +23°C° 0 mm 1 mps 655 mmHg 43%
    09:00 +25°C° 0 mm 1 mps 656 mmHg 39%
    10:00 +27°C° 0 mm 2 mps 656 mmHg 34%
    11:00 +28°C° 0.1 mm 2 mps 656 mmHg 34%
    12:00 +28°C° 0.1 mm 2 mps 656 mmHg 34%
    13:00 +28°C° 0.1 mm 3 mps 656 mmHg 34%
    14:00 +28°C° 0.3 mm 3 mps 655 mmHg 36%
    15:00 +27°C° 0.3 mm 3 mps 655 mmHg 39%
    16:00 +27°C° 0.3 mm 3 mps 655 mmHg 41%
    17:00 +24°C° 0.2 mm 2 mps 654 mmHg 50%
    18:00 +21°C° 0.2 mm 2 mps 654 mmHg 58%
    19:00 +18°C° 0.2 mm 2 mps 653 mmHg 66%
    20:00 +17°C° 0.1 mm 2 mps 653 mmHg 69%
    21:00 +16°C° 0.1 mm 1 mps 653 mmHg 72%
    22:00 +15°C° 0.1 mm 1 mps 653 mmHg 75%
    23:00 +15°C° 0.1 mm 1 mps 653 mmHg 76%

    Day after tomorrow, 25 June, Sunday

    Time Temperature Precipitation Wind Pressure Humidity
    00:00 +15°C° 0.1 mm 1 mps 653 mmHg 77%
    01:00 +14°C° 0.1 mm 1 mps 653 mmHg 78%
    02:00 +14°C° 0.1 mm 1 mps 652 mmHg 78%
    03:00 +14°C° 0.1 mm 1 mps 652 mmHg 78%
    04:00 +13°C° 0.1 mm 0 mps 652 mmHg 79%
    05:00 +15°C° 0 mm 0 mps 653 mmHg 71%
    06:00 +18°C° 0 mm 0 mps 653 mmHg 63%
    07:00 +21°C° 0 mm 0 mps 654 mmHg 55%
    08:00 +24°C° 0.1 mm 1 mps 654 mmHg 50%
    09:00 +26°C° 0.1 mm 1 mps 655 mmHg 45%
    10:00 +27°C° 0.1 mm 1 mps 655 mmHg 40%
    11:00 +28°C° 0.6 mm 2 mps 655 mmHg 41%
    12:00 +28°C° 0.6 mm 2 mps 654 mmHg 41%
    13:00 +28°C° 0.6 mm 2 mps 654 mmHg 41%
    14:00 +27°C° 0.6 mm 2 mps 654 mmHg 44%
    15:00 +26°C° 0.6 mm 2 mps 653 mmHg 48%
    16:00 +25°C° 0.6 mm 2 mps 653 mmHg 52%
    17:00 +23°C° 0.3 mm 1 mps 653 mmHg 58%
    18:00 +21°C° 0.3 mm 1 mps 652 mmHg 64%
    19:00 +19°C° 0.3 mm 1 mps 652 mmHg 70%
    20:00 +19°C° 0.2 mm 1 mps 652 mmHg 71%
    21:00 +18°C° 0.2 mm 1 mps 652 mmHg 72%
    22:00 +16°C° 0.2 mm 1 mps 652 mmHg 73%
    23:00 +14°C° 0.1 mm 0 mps 651 mmHg 75%

    26 June, Monday

    Time Temperature Precipitation Wind Pressure Humidity
    00:00 +14°C° 0.1 mm 0 mps 651 mmHg 76%
    01:00 +13°C° 0.1 mm 0 mps 651 mmHg 77%
    02:00 +13°C° 0.1 mm 0 mps 651 mmHg 78%
    03:00 +12°C° 0.1 mm 0 mps 650 mmHg 79%
    04:00 +12°C° 0.1 mm 0 mps 650 mmHg 79%
    05:00 +15°C° 0 mm 0 mps 651 mmHg 71%
    06:00 +17°C° 0 mm 0 mps 652 mmHg 62%
    07:00 +20°C° 0 mm 0 mps 653 mmHg 53%
    08:00 +24°C° 0 mm 1 mps 653 mmHg 47%
    09:00 +25°C° 0 mm 1 mps 654 mmHg 41%
    10:00 +27°C° 0 mm 2 mps 654 mmHg 35%
    11:00 +27°C° 0 mm 2 mps 654 mmHg 34%
    12:00 +28°C° 0 mm 2 mps 654 mmHg 34%
    13:00 +28°C° 0 mm 3 mps 654 mmHg 33%
    14:00 +28°C° 0.1 mm 2 mps 653 mmHg 35%
    15:00 +27°C° 0.1 mm 2 mps 653 mmHg 38%
    16:00 +26°C° 0.1 mm 2 mps 653 mmHg 40%
    17:00 +24°C° 0.1 mm 2 mps 653 mmHg 49%
    18:00 +21°C° 0.1 mm 1 mps 652 mmHg 58%
    19:00 +19°C° 0.1 mm 1 mps 652 mmHg 67%
    20:00 +18°C° 0 mm 1 mps 652 mmHg 70%
    21:00 +16°C° 0 mm 1 mps 652 mmHg 72%
    22:00 +15°C° 0 mm 1 mps 652 mmHg 74%
    23:00 +15°C° 0 mm 1 mps 652 mmHg 75%

    27 June, Tuesday

    Time Temperature Precipitation Wind Pressure Humidity
    00:00 +13°C° 0 mm 0 mps 652 mmHg 77%
    01:00 +13°C° 0 mm 0 mps 652 mmHg 78%
    02:00 +13°C° 0.1 mm 0 mps 652 mmHg 79%
    03:00 +13°C° 0.1 mm 0 mps 652 mmHg 79%
    04:00 +13°C° 0.1 mm 0 mps 651 mmHg 80%
    05:00 +15°C° 0 mm 0 mps 652 mmHg 72%
    06:00 +18°C° 0 mm 0 mps 653 mmHg 63%
    07:00 +21°C° 0 mm 0 mps 654 mmHg 54%
    08:00 +24°C° 0.1 mm 1 mps 655 mmHg 50%
    09:00 +26°C° 0.1 mm 1 mps 655 mmHg 46%
    10:00 +28°C° 0.1 mm 1 mps 655 mmHg 41%
    11:00 +28°C° 0.3 mm 2 mps 655 mmHg 40%
    12:00 +28°C° 0.3 mm 2 mps 655 mmHg 40%
    13:00 +28°C° 0.3 mm 2 mps 655 mmHg 39%
    14:00 +28°C° 0.2 mm 2 mps 655 mmHg 41%
    15:00 +27°C° 0.2 mm 2 mps 654 mmHg 42%
    16:00 +27°C° 0.2 mm 2 mps 654 mmHg 44%
    17:00 +24°C° 0.1 mm 2 mps 654 mmHg 51%
    18:00 +22°C° 0.1 mm 1 mps 653 mmHg 59%
    19:00 +20°C° 0.1 mm 1 mps 653 mmHg 67%
    20:00 +18°C° 0 mm 1 mps 653 mmHg 70%
    21:00 +16°C° 0 mm 1 mps 653 mmHg 72%
    22:00 +14°C° 0 mm 0 mps 653 mmHg 74%
    23:00 +14°C° 0 mm 0 mps 652 mmHg 75%

    28 June, Wednesday

    Time Temperature Precipitation Wind Pressure Humidity
    00:00 +14°C° 0 mm 0 mps 652 mmHg 76%
    01:00 +13°C° 0 mm 0 mps 652 mmHg 77%
    02:00 +13°C° 0 mm 0 mps 652 mmHg 78%
    03:00 +12°C° 0 mm 0 mps 651 mmHg 79%
    04:00 +12°C° 0 mm 0 mps 651 mmHg 80%
    05:00 +15°C° 0 mm 0 mps 652 mmHg 70%
    06:00 +18°C° 0 mm 0 mps 653 mmHg 60%
    07:00 +21°C° 0 mm 0 mps 654 mmHg 49%
    08:00 +25°C° 0 mm 1 mps 654 mmHg 44%
    09:00 +26°C° 0 mm 1 mps 654 mmHg 39%
    10:00 +27°C° 0 mm 2 mps 655 mmHg 34%
    11:00 +28°C° 0 mm 2 mps 654 mmHg 33%
    12:00 +29°C° 0 mm 2 mps 654 mmHg 32%
    13:00 +29°C° 0 mm 2 mps 654 mmHg 31%
    14:00 +29°C° 0 mm 2 mps 654 mmHg 32%
    15:00 +28°C° 0 mm 2 mps 654 mmHg 34%
    16:00 +28°C° 0 mm 2 mps 653 mmHg 36%
    17:00 +25°C° 0 mm 2 mps 653 mmHg 46%
    18:00 +21°C° 0 mm 2 mps 652 mmHg 55%
    19:00 +20°C° 0 mm 1 mps 652 mmHg 65%
    20:00 +18°C° 0 mm 1 mps 651 mmHg 68%
    21:00 +16°C° 0 mm 1 mps 651 mmHg 72%
    22:00 +15°C° 0 mm 1 mps 651 mmHg 75%
    23:00 +15°C° 0 mm 1 mps 651 mmHg 75%
    Show more